TimeCDT,TemperatureF,Dew PointF,Humidity,Sea Level PressureIn,VisibilityMPH,Wind Direction,Wind SpeedMPH,Gust SpeedMPH,PrecipitationIn,Events,Conditions,WindDirDegrees,DateUTC
12:54 AM,64.9,63.0,93,29.85,7.0,Calm,Calm,-,N/A,,Clear,0,2013-05-28 05:54:00
1:54 AM,71.1,64.0,78,29.79,10.0,Variable,4.6,-,N/A,,Clear,0,2013-05-28 06:54:00
2:54 AM,70.0,64.0,81,29.80,10.0,South,4.6,-,N/A,,Clear,170,2013-05-28 07:54:00
3:54 AM,73.0,64.0,73,29.79,10.0,SSW,5.8,-,N/A,,Clear,200,2013-05-28 08:54:00
4:54 AM,73.9,64.0,71,29.81,10.0,South,6.9,-,N/A,,Clear,190,2013-05-28 09:54:00
5:54 AM,73.9,64.0,71,29.83,10.0,Calm,Calm,-,N/A,,Overcast,0,2013-05-28 10:54:00
6:54 AM,73.0,64.0,73,29.82,10.0,SSW,10.4,-,N/A,,Overcast,200,2013-05-28 11:54:00
7:43 AM,71.6,64.4,78,29.85,10.0,WNW,11.5,17.3,0.01,Rain-Thunderstorm,Light Rain,290,2013-05-28 12:43:00
7:54 AM,71.1,66.0,84,29.83,10.0,SSW,5.8,-,0.01,Rain,Light Rain,200,2013-05-28 12:54:00
7:57 AM,71.6,66.2,83,29.84,9.0,South,5.8,-,0.00,Rain-Thunderstorm,Light Thunderstorms and Rain,190,2013-05-28 12:57:00
8:54 AM,71.1,64.9,81,29.85,1.0,West,18.4,34.5,0.14,Rain-Thunderstorm,Thunderstorms and Rain,260,2013-05-28 13:54:00
9:08 AM,69.8,64.4,83,29.84,4.0,South,6.9,-,0.15,Rain-Thunderstorm,Light Thunderstorms and Rain,190,2013-05-28 14:08:00
9:54 AM,70.0,66.0,87,29.86,5.0,WSW,6.9,-,0.25,Rain-Thunderstorm,Light Rain,240,2013-05-28 14:54:00
10:09 AM,71.6,66.2,83,29.87,5.0,South,3.5,-,0.00,Rain-Thunderstorm,Light Rain,180,2013-05-28 15:09:00
10:23 AM,69.8,66.2,88,29.88,5.0,SSW,5.8,-,0.00,Rain-Thunderstorm,Light Rain,210,2013-05-28 15:23:00
10:54 AM,70.0,66.9,90,29.83,5.0,South,8.1,-,0.03,Rain-Thunderstorm,Light Thunderstorms and Rain,190,2013-05-28 15:54:00
11:54 AM,73.9,69.1,85,29.84,10.0,Variable,3.5,-,0.07,,Scattered Clouds,0,2013-05-28 16:54:00
12:54 PM,79.0,69.1,72,29.85,10.0,SSW,9.2,19.6,0.01,Thunderstorm,Scattered Clouds,200,2013-05-28 17:54:00
1:17 PM,78.8,69.8,74,29.82,10.0,SSE,10.4,-,N/A,,Mostly Cloudy,150,2013-05-28 18:17:00
1:54 PM,82.9,70.0,65,29.80,10.0,Variable,6.9,16.1,0.00,,Partly Cloudy,0,2013-05-28 18:54:00
2:54 PM,84.0,68.0,58,29.81,10.0,South,12.7,19.6,N/A,,Clear,180,2013-05-28 19:54:00
3:54 PM,84.0,66.9,56,29.80,10.0,South,9.2,21.9,N/A,,Mostly Cloudy,180,2013-05-28 20:54:00
4:54 PM,82.9,66.9,58,29.80,10.0,South,6.9,-,N/A,,Mostly Cloudy,190,2013-05-28 21:54:00
5:54 PM,81.0,68.0,65,29.82,10.0,Variable,4.6,-,N/A,,Mostly Cloudy,0,2013-05-28 22:54:00
6:54 PM,81.0,66.9,62,29.82,10.0,Calm,Calm,-,N/A,,Mostly Cloudy,0,2013-05-28 23:54:00
7:54 PM,78.1,66.0,66,29.82,10.0,SSW,5.8,-,N/A,,Mostly Cloudy,210,2013-05-29 00:54:00
8:54 PM,78.1,64.0,62,29.80,10.0,SSW,5.8,-,N/A,,Clear,200,2013-05-29 01:54:00
9:54 PM,77.0,63.0,62,29.84,10.0,SSW,9.2,-,N/A,,Scattered Clouds,200,2013-05-29 02:54:00
10:54 PM,77.0,62.1,60,29.85,10.0,SSW,12.7,20.7,N/A,,Clear,200,2013-05-29 03:54:00
11:54 PM,77.0,62.1,60,29.86,10.0,SSW,10.4,17.3,N/A,,Clear,200,2013-05-29 04:54:00